Date String (YYYY-MM-DD hh:mm:ss) UTC,Instrument flags,Ambient pressure (hPa),Sample flow (lpm),Bypass flow (lpm),Sample temperature (°C),Ambient temperature (°C),ASC tube jacket temperature (°C),LED temperature (°C),Box temperature (°C),Sample RH (%),Span deviation,Mass concentration (μg/m³),Mass concentration (μg/m³),Mass concentration (μg/m³)
DateTimeUTC,F1_M11,P_M11,Q1_M11,Q2_M11,T1_M11,T2_M11,T3_M11,T4_M11,T5_M11,U1_M11,ZSPAN_M11,X0_M11,X2_M11,X1_M11
2021-12-23 11:00:00,,0819.4,5.01,0.00,25.5,24.8,00.0,34.5,27.3,07.6,0000.0,0002.24,0000.51,0000.32
2021-12-23 11:01:00,,0819.4,4.98,0.00,25.5,24.8,00.0,34.5,27.3,07.6,0000.0,0002.14,0000.51,0000.32
2021-12-23 11:02:00,,0819.4,5.01,0.00,25.5,24.8,00.0,34.4,27.3,07.6,0000.0,0001.48,0000.49,0000.32
2021-12-23 11:03:00,,0819.3,4.99,0.00,25.5,24.8,00.0,34.5,27.3,07.6,0000.0,0001.20,0000.50,0000.32
2021-12-23 11:04:00,,0819.3,5.01,0.00,25.5,24.8,00.0,34.5,27.3,07.6,0000.0,0001.19,0000.48,0000.32
2021-12-23 11:05:00,,0819.4,5.00,0.00,25.5,24.8,00.0,34.5,27.3,07.6,0000.0,0001.22,0000.48,0000.32
2021-12-23 11:06:00,,0819.4,5.00,0.00,25.5,24.8,00.0,34.5,27.3,07.6,0000.0,0001.15,0000.45,0000.31
2021-12-23 11:07:00,,0819.3,5.00,0.00,25.5,24.7,00.0,34.5,27.3,07.7,0000.0,0001.18,0000.44,0000.31
2021-12-23 11:08:00,,0819.3,4.99,0.00,25.5,24.7,00.0,34.5,27.3,07.7,0000.0,0001.26,0000.44,0000.31
2021-12-23 11:09:00,,0819.2,5.00,0.00,25.5,24.7,00.0,34.5,27.3,07.7,0000.0,0001.21,0000.42,0000.30
2021-12-23 11:10:00,,0819.3,5.01,0.00,25.5,24.8,00.0,34.5,27.3,07.7,0000.0,0001.16,0000.44,0000.30
2021-12-23 11:11:00,,0819.3,5.00,0.00,25.5,24.8,00.0,34.5,27.3,07.7,0000.0,0001.17,0000.45,0000.29
2021-12-23 11:12:00,,0819.2,5.00,0.00,25.5,24.8,00.0,34.5,27.3,07.6,0000.0,0001.16,0000.44,0000.29
2021-12-23 11:13:00,,0819.1,5.00,0.00,25.5,24.7,00.0,34.5,27.2,07.6,0000.0,0000.81,0000.42,0000.28
2021-12-23 11:14:00,,0819.1,4.99,0.00,25.5,24.7,00.0,34.5,27.2,07.6,0000.0,0000.81,0000.44,0000.28
2021-12-23 11:15:00,,0819.1,5.03,0.00,25.5,24.7,00.0,34.5,27.2,07.6,0000.0,0000.79,0000.43,0000.28
2021-12-23 11:16:00,,0819.2,4.99,0.00,25.5,24.7,00.0,34.5,27.2,07.6,0000.0,0000.72,0000.42,0000.28
2021-12-23 11:17:00,,0819.3,5.01,0.00,25.5,24.7,00.0,34.4,27.2,07.6,0000.0,0000.82,0000.43,0000.28
2021-12-23 11:18:00,,0819.2,4.99,0.00,25.5,24.7,00.0,34.4,27.2,07.6,0000.0,0000.78,0000.43,0000.28
2021-12-23 11:19:00,,0819.2,5.00,0.00,25.5,24.7,00.0,34.5,27.2,07.6,0000.0,0000.68,0000.43,0000.28
2021-12-23 11:20:00,,0819.3,5.01,0.00,25.5,24.7,00.0,34.5,27.2,07.6,0000.0,0000.74,0000.45,0000.29
2021-12-23 11:21:00,,0819.2,4.99,0.00,25.5,24.7,00.0,34.4,27.2,07.6,0000.0,0000.67,0000.42,0000.29
2021-12-23 11:22:00,,0819.2,5.00,0.00,25.5,24.7,00.0,34.5,27.2,07.7,0000.0,0000.64,0000.40,0000.29
2021-12-23 11:23:00,,0819.1,5.01,0.00,25.5,24.7,00.0,34.5,27.2,07.7,0000.0,0000.66,0000.41,0000.30
2021-12-23 11:24:00,,0819.2,5.00,0.00,25.4,24.6,00.0,34.4,27.1,07.7,0000.0,0000.66,0000.41,0000.29
2021-12-23 11:25:00,,0819.2,4.99,0.00,25.4,24.5,00.0,34.4,27.1,07.7,0000.0,0000.61,0000.37,0000.29
2021-12-23 11:26:00,,0819.3,5.00,0.00,25.4,24.5,00.0,34.4,27.0,07.7,0000.0,0000.58,0000.35,0000.28
2021-12-23 11:27:00,,0819.2,5.01,0.00,25.3,24.5,00.0,34.4,26.9,07.7,0000.0,0000.60,0000.37,0000.28
2021-12-23 11:28:00,,0819.3,4.99,0.00,25.3,24.4,00.0,34.4,26.9,07.8,0000.0,0000.57,0000.39,0000.28
2021-12-23 11:29:00,,0819.3,5.01,0.00,25.3,24.4,00.0,34.4,26.9,07.8,0000.0,0000.56,0000.40,0000.28
2021-12-23 11:30:00,,0819.2,4.99,0.00,25.3,24.4,00.0,34.4,26.9,07.8,0000.0,0000.56,0000.39,0000.28
2021-12-23 11:31:00,,0819.2,5.01,0.00,25.3,24.4,00.0,34.4,26.9,07.8,0000.0,0000.58,0000.40,0000.28
2021-12-23 11:32:00,,0819.2,4.99,0.00,25.2,24.4,00.0,34.4,26.9,07.9,0000.0,0000.57,0000.39,0000.29
2021-12-23 11:33:00,,0819.3,5.00,0.00,25.2,24.3,00.0,34.3,26.8,07.9,0000.0,0000.62,0000.41,0000.28
2021-12-23 11:34:00,,0819.3,5.02,0.00,25.2,24.3,00.0,34.3,26.8,07.9,0000.0,0001.26,0000.41,0000.29
2021-12-23 11:35:00,,0819.3,4.98,0.00,25.2,24.3,00.0,34.3,26.8,08.0,0000.0,0001.96,0000.41,0000.29
2021-12-23 11:36:00,,0819.3,5.01,0.00,25.1,24.2,00.0,34.3,26.8,08.0,0000.0,0001.97,0000.42,0000.30
2021-12-23 11:37:00,,0819.3,4.99,0.00,25.1,24.2,00.0,34.3,26.7,08.0,0000.0,0001.99,0000.43,0000.30
2021-12-23 11:38:00,,0819.4,5.00,0.00,25.1,24.1,00.0,34.3,26.7,08.0,0000.0,0001.98,0000.41,0000.29
2021-12-23 11:39:00,,0819.4,5.00,0.00,25.0,24.1,00.0,34.2,26.7,08.0,0000.0,0002.01,0000.40,0000.29
2021-12-23 11:40:00,,0819.4,4.99,0.00,25.0,24.1,00.0,34.2,26.7,08.0,0000.0,0001.97,0000.39,0000.29
2021-12-23 11:41:00,,0819.4,5.00,0.00,25.0,24.0,00.0,34.2,26.7,08.0,0000.0,0001.96,0000.38,0000.28
2021-12-23 11:42:00,,0819.4,5.00,0.00,25.0,24.1,00.0,34.2,26.7,08.0,0000.0,0002.03,0000.39,0000.28
2021-12-23 11:43:00,,0819.4,4.99,0.00,25.0,24.1,00.0,34.2,26.6,08.1,0000.0,0001.99,0000.37,0000.27
2021-12-23 11:44:00,,0819.3,5.00,0.00,24.9,24.0,00.0,34.1,26.6,08.1,0000.0,0001.95,0000.35,0000.27
2021-12-23 11:45:00,,0819.4,5.01,0.00,24.9,24.0,00.0,34.1,26.6,08.1,0000.0,0001.19,0000.36,0000.27
2021-12-23 11:46:00,,0819.4,4.99,0.00,24.9,24.0,00.0,34.1,26.5,08.1,0000.0,0000.62,0000.36,0000.27
2021-12-23 11:47:00,,0819.4,5.01,0.00,24.9,24.0,00.0,34.1,26.5,08.1,0000.0,0000.64,0000.36,0000.27
2021-12-23 11:48:00,,0819.4,5.00,0.00,24.9,23.9,00.0,34.0,26.5,08.2,0000.0,0000.73,0000.40,0000.27
2021-12-23 11:49:00,,0819.4,4.99,0.00,24.8,23.9,00.0,34.0,26.5,08.2,0000.0,0000.73,0000.41,0000.27
2021-12-23 11:50:00,,0819.4,5.00,0.00,24.8,23.9,00.0,34.0,26.4,08.2,0000.0,0000.66,0000.38,0000.27
2021-12-23 11:51:00,,0819.3,5.01,0.00,24.8,23.9,00.0,34.0,26.4,08.2,0000.0,0000.66,0000.39,0000.27
2021-12-23 11:52:00,,0819.4,5.00,0.00,24.8,23.9,00.0,34.0,26.4,08.2,0000.0,0000.68,0000.39,0000.27
2021-12-23 11:53:00,,0819.4,5.00,0.00,24.8,23.9,00.0,33.9,26.4,08.2,0000.0,0000.56,0000.37,0000.27
2021-12-23 11:54:00,,0819.3,4.99,0.00,24.7,23.9,00.0,33.9,26.4,08.2,0000.0,0000.57,0000.37,0000.28
2021-12-23 11:55:00,,0819.4,5.01,0.00,24.7,23.9,00.0,33.9,26.4,08.3,0000.0,0000.57,0000.38,0000.28
2021-12-23 11:56:00,,0819.4,4.98,0.00,24.7,23.8,00.0,33.9,26.4,08.3,0000.0,0000.59,0000.39,0000.28
2021-12-23 11:57:00,,0819.3,5.01,0.00,24.7,23.9,00.0,33.9,26.4,08.3,0000.0,0000.59,0000.39,0000.29
2021-12-23 11:58:00,,0819.4,4.99,0.00,24.7,23.8,00.0,33.9,26.4,08.3,0000.0,0000.57,0000.39,0000.29
2021-12-23 11:59:00,,0819.4,5.02,0.00,24.7,23.8,00.0,33.8,26.3,08.3,0000.0,0000.48,0000.35,0000.29
